Regional Weather Roundup
Issued by NWS Charleston, WV

Home | Current Version | Previous Version | Graphics & Text | Print | Product List | Glossary On
Versions: 1 2 3 4 5 6 7 8 9 10 11 12 13 14 15 16 17 18 19 20 21 22 23 24 25 26 27 28 29 30 31 32 33 34 35 36 37 38 39 40 41 42 43 44 45 46 47 48 49 50
000
ASUS41 KRLX 290410
RWRRLX
West Virginia Regional Weather Roundup
National Weather Service Charleston WV
1200 AM EDT WED JUL 29 2015

Note: "fair" indicates few or no clouds below 12,000 feet with no
significant weather and/or obstructions to visibility.

WVZ003-290500-
Northern Panhandle of West Virginia

CITY           SKY/WX    TMP DP  RH WIND       PRES   REMARKS
WHEELING       CLEAR     73  69  87 E5        30.01S
$$

WVZ009-290500-
Northwest West Virginia

CITY           SKY/WX    TMP DP  RH WIND       PRES   REMARKS
PARKERSBURG    CLEAR     74  71  91 CALM      30.01S FOG
$$

WVZ006-290500-
Western West Virginia

CITY           SKY/WX    TMP DP  RH WIND       PRES   REMARKS
HUNTINGTON     PTCLDY    74  71  91 SW5       29.99R
$$

WVZ015-290500-
West Central West Virginia

CITY           SKY/WX    TMP DP  RH WIND       PRES   REMARKS
CHARLESTON     PTCLDY    75  72  90 CALM      29.99S
$$

WVZ022-031-290500-
North Central West Virginia

CITY           SKY/WX    TMP DP  RH WIND       PRES   REMARKS
CLARKSBURG     PTCLDY    71  70  96 CALM      30.01S FOG
MORGANTOWN     PTCLDY    78  68  71 SE5       30.02S
$$

WVZ025-035-042-045-290500-
Southern West Virginia

CITY           SKY/WX    TMP DP  RH WIND       PRES   REMARKS
BECKLEY        PTCLDY    71  67  87 CALM      30.09S
LOGAN            N/A     77  73  88 CALM      30.00S
BLUEFIELD      PTCLDY    74  67  78 CALM      30.11S
LEWISBURG      PTCLDY    73  68  83 CALM      30.10S
$$

WVZ047-290500-
Northern Mountains of West Virginia

CITY           SKY/WX    TMP DP  RH WIND       PRES   REMARKS
ELKINS         PTCLDY    69  67  93 CALM      30.06F
$$

WVZ052-290500-
Eastern Panhandle of West Virginia

CITY           SKY/WX    TMP DP  RH WIND       PRES   REMARKS
MARTINSBURG    CLEAR     71  69  93 E3        30.01S
PETERSBURG     CLEAR    N/A N/A N/A CALM      30.04F
$$


USA.gov is the U.S. government's official web portal to all federal, state and local government web resources and services.